Regional Weather Roundup
Issued by NWS Wakefield, VA

Home | Current Version | Previous Version | Graphics & Text | Print | Product List | Glossary On
Versions: 1 2 3 4 5 6 7 8 9 10 11 12 13 14 15 16 17 18 19 20 21 22 23 24 25 26 27 28 29 30 31 32 33 34 35 36 37 38 39 40 41 42 43 44 45 46 47 48 49 50
000
ASUS41 KAKQ 271515
RWRAKQ

REGIONAL WEATHER ROUNDUP
NATIONAL WEATHER SERVICE WAKEFIELD VA
1100 AM EDT MON JUL 27 2015

Note: "fair" indicates few or no clouds below 12,000 feet with no
significant weather and/or obstructions to visibility. * = Denotes
station may not report precipitation (e.g., rain,snow,etc.),
thunder or fog.

VAZ042-051-052>054-056-271600-
NORTHERN VIRGINIA

CITY           SKY/WX    TMP DP  RH WIND       PRES   REMARKS
WASH NATIONAL  CLOUDY    81  72  74 S7        30.01S
DULLES         PTSUNNY   78  70  76 CALM      30.01R
FORT BELVOIR   MOSUNNY   81  70  70 VRB3      30.00S
QUANTICO       MOSUNNY   81  71  71 SW13      30.00S
FREDERICKSBRG* MOSUNNY   83  71  66 SW7       29.99S
STAFFORD*      MOSUNNY   80  68  65 CALM      30.04S
WARRENTON      MOSUNNY   83  73  71 CALM      30.00S
CULPEPER*      SUNNY     80  71  72 CALM      30.01S
MANASSAS*      SUNNY     82  70  65 MISG      30.00S
LEESBURG*      MOSUNNY   81  72  74 CALM      30.02R
WINCHESTER     CLOUDY    82  70  65 CALM      30.01S
FRONT ROYAL*   FAIR      82  72  69 CALM      30.00S
LURAY*         FAIR      84  73  70 SW5       30.01S
$$

VAZ048-049-060>072-079>083-271600-
CENTRAL AND SOUTH CENTRAL VIRGINIA

CITY           SKY/WX    TMP DP  RH WIND       PRES   REMARKS
RICHMOND       CLOUDY    80  72  76 S9        30.02F
CHESTERFIELD*  CLOUDY    79  63  57 S7        30.04S
PETERSBURG*    CLOUDY    78  76  91 S5        30.04S
HANOVER        CLOUDY    79  72  79 S9        30.03S
TAPPAHANNOCK*  CLOUDY    80  69  68 S6        30.03S
QUINTON*       PTSUNNY   78  73  84 S5        30.02S
CHARLOTTSVILLE MOSUNNY   80  71  74 CALM      30.01R
GORDONSVILLE*  FAIR      79  70  73 SW3       30.01R
ORANGE*        MOSUNNY   81  72  74 SE3       30.02S
LOUISA*        PTSUNNY   79  70  73 CALM      30.01R
BUMPASS*       FAIR      77  70  78 S5        30.02R
FARMVILLE*     CLOUDY    81  69  66 S6        30.01S
CREWE*         CLOUDY   N/A N/A N/A S5        30.02S
FORT PICKETT*  PTSUNNY   78  73  85 SW7       30.04R
CHASE CITY*    FAIR      82  76  84 SW3       30.03S
CLARKSVILLE*   PTSUNNY   79  73  83 SW6       30.02F
SOUTH HILL*    PTSUNNY   79  73  82 S7        30.09S
LAWRENCEVILLE* PTSUNNY   79  73  83 S5        30.03S
EMPORIA*       CLOUDY    77  72  83 E3        30.05S
$$

VAZ088>098-271600-
SOUTHEAST VIRGINIA

CITY           SKY/WX    TMP DP  RH WIND       PRES   REMARKS
NORFOLK        CLOUDY    80  69  69 S6        30.05S
VIRGINIA BEACH CLOUDY    82  71  69 VRB3      30.04S
NORFOLK NAVAL  CLOUDY    79  71  76 S3        30.06S
WEST POINT*    CLOUDY    80  73  78 S8        30.05S
SALUDA*        CLOUDY    76  72  85 S8        30.04R
NEWPORT NEWS   LGT RAIN  77  74  90 E3        30.05F
LANGLEY AFB    LGT RAIN  79  72  78 S3        30.05F
FORT EUSTIS    DRIZZLE   76  76 100 E5        30.03S
WILLIAMSBURG*  CLOUDY    79  77  94 SE7       30.05S
HR EXEC AP*    CLOUDY    77  72  83 CALM      30.07S
FRANKLIN*      CLOUDY    77  72  84 CALM      30.05S
WAKEFIELD      CLOUDY    77  72  84 E3        30.05S
$$

VAZ020-022-025-037-045-271600-
WEST CENTRAL AND SOUTHWEST VIRGINIA

CITY           SKY/WX    TMP DP  RH WIND       PRES   REMARKS
STAUNTON*      MOSUNNY   83  71  64 CALM      30.05S
WAYNESBORO*    FAIR      80  70  70 CALM      30.05R
HOT SPRINGS VA CLOUDY    73  65  76 W8        30.17S
LYNCHBURG      CLOUDY    80  69  69 S5        30.04S
DANVILLE       PTSUNNY   81  71  71 SW8       30.03F
SOUTH BOSTON*  FAIR      82  72  70 S6        30.02F
MARTINSVILLE   PTSUNNY   82  68  63 SW6       30.06F
ROANOKE        CLOUDY    80  68  66 W3        30.06S
BLACKSBURG     LGT RAIN  72  70  95 CALM      30.13S
DUBLIN*          N/A     74  71  88 CALM      30.12S
MARION*        HVY RAIN  73  69  88 W3        30.16R
HILLSVILLE*    CLOUDY    74  68  79 SW5       30.12S
RICHLANDS*     CLOUDY    69  68  99 NE7       30.15R
WISE*          MOSUNNY   79  66  65 NW3       30.14R
ABINGDON*      PTSUNNY   79  69  73 W5        30.10S
$$

MDZ021>025-VAZ099-100-271600-
SOUTHERN MARYLAND AND THE DELMARVA PENINSULA

CITY           SKY/WX    TMP DP  RH WIND       PRES   REMARKS
PATUXENT RIVER CLOUDY    78  72  81 S8        30.02R
BAY BRIDGE APT   N/A     79  72  78 S8        30.01S
LEONARDTOWN    PTSUNNY   77  70  78 S7        30.03S
DOVER          CLOUDY    76  73  91 SE7       30.01S
GEORGETOWN     CLOUDY    73  70  90 S7        30.04S
EASTON         SUNNY     79  77  94 S12       30.05S
CAMBRIDGE      PTSUNNY   79  72  78 S12       30.01F
SALISBURY      CLOUDY    74  72  93 S6        30.03F
OCEAN CITY     LGT RAIN  74  71  91 CALM      30.04F
WALLOPS ISLAND LGT RAIN  75  74  96 SE6       30.05F
ACCOMACK*      CLOUDY   N/A N/A N/A SE3       30.04F
$$

NCZ012>017-030>032-271600-
NORTH CENTRAL AND EASTERN NORTH CAROLINA

CITY           SKY/WX    TMP DP  RH WIND       PRES   REMARKS
ROANOKE RAPIDS FAIR      79  72  78 S5        30.03F
RALEIGH        PTSUNNY   84  74  71 S7        30.04S
ELIZABETH CITY CLOUDY    81  71  71 SE5       30.05S
AHOSKIE*       PTSUNNY   80  72  74 SE6       30.04F
EDENTON*         N/A     82  71  68 SE6       30.05S
CURRITUCK*     CLOUDY    80  69  68 CALM      30.06S
KILL DEVIL HLS CLOUDY    87  68  52 SE3       30.05R
MANTEO         CLOUDY    82  67  61 SW7       30.06R
CAPE HATTERAS  MOSUNNY   85  68  56 E7        30.05R
TARBORO*         N/A     81  73  75 S3        30.05S
GOLDSBORO      MOSUNNY   85  74  71 SE6       30.01S
WASHINGTON     PTSUNNY   83  71  67 E6        30.04S
GREENVILLE     PTSUNNY   84  72  65 SE5       30.05S
NEW BERN       SUNNY     85  72  65 SE8       30.05R
WILMINGTON     PTSUNNY   85  74  69 E9        30.01S
$$

VAZ048-271600-
ELSEWHERE

CITY           SKY/WX    TMP DP  RH WIND       PRES   REMARKS
HARRISBURG PA  CLOUDY    77  69  76 N3        30.02R
BALTIMORE      PTSUNNY   80  71  74 S6        30.00S
ANNAPOLIS      PTSUNNY   79  71  76 S9        30.00S
ANDREWS AFB    PTSUNNY   79  72  78 VRB2      30.01S
PHILADELPHIA   PTSUNNY   79  69  71 VRB5      30.04S
HENDERSON NC   MOSUNNY   81  71  71 SW8       30.04S
GREENSBORO     CLOUDY    83  66  56 SW9       30.04F
ROCKY MOUNT    PTSUNNY   82  73  74 SE5       30.04R
$$

VAZ100-271600-
MARINE

STATION/POSITION TIME  TEMP    WIND        PRES    WAVE   SWELL
                       AIR SEA DIR/SP/G            HT/PER HT/PER
                 (UTC) (F)     (DEG/KT/KT) (MB)    (FT/S) (FT/S)
BRANDYWINE LGT   1400   73 76  210/  8/ 10 1017.2R
CAPE MAY NJ      1400   74 80  200/  5/  7 1016.7R
LEWES DE         1400   72 72  220/  2/  4 1016.8R
15NM E FENWICK I 1450   74     210/  8/ 10 1017.5S   2/11   2/11
OCEAN-CITY-INLET 1400   72 76  240/  5/  6 1016.6R
WACHAPREAGUE VA  1400   73 80   CALM  /  3 1017.8R
THOMAS POINT MD  1400   76 79  170/ 13/ 14 1016.5
GOOSES REEF MD   1500   79 80  190/ 17/ 19 1016.9S
COVE POINT MD    1400   76     200/ 12/ 14 1017.0S
SOLOMONS ISLAND  1400      82                N/A
BISHOPS HEAD MD  1400   75 79  130/ 13/ 15 1015.9F
POTOMAC MD       1500   77 82  190/ 10/ 12 1016.0R   1/ 2
CAMBRIDGE MD     1400   74 83  140/  5/  8 1015.6S
LEWISETTA VA     1400   76 82  210/  7/  9 1016.2F
RAPPAHANNOCK LGT 1400           40/  2/  3 1018.0R
STINGRAY PT      1500   78 82  180/ 10/ 12 1017.3F   1
YORK RVR RNG VA  1400   76      60/  1/  2 1017.0R
YORKTOWN VA      1400   76 83     CALM     1017.2R
JAMESTOWN VA     1500   76 84  120/  8/ 10   N/A
DOMINION TERM VA 1400   77     230/  3/  4 1017.4R
KIPTOPEKE VA     1400      86  230/  5/  7   N/A
CHES BAY BRIDGE  1400   79 81  170/  3/  4 1017.1R
CAPE HENRY VA    1400   78     150/  2/  3   N/A
CHESAPEAKE LGHT  1400   80     200/  6/  7 1018.4R
WILLOUBY STN VA  1400   78     260/  3/  3 1018.5R
CAPE HENRY BUOY  1428      80                N/A     2/11   2/11
1ST LANDING BUOY 1500      80              1017.3S   1/ 5
CAPE CHARLES BUO 1426      79                N/A     2/12   2/12
OFFSHORE WE BUOY 1411      81                N/A     3/11   3/11
64NM E OF VA BCH 1450   80 80  210/  2/  2 1017.9R   2/11   2/11
DUCK PIER NC     1400   81 80  140/  6/  6 1016.6R
44100 DUCK FRF   1424      80                N/A     2/11   2/11
44056 DUCK FRF   1411      80                N/A     2/11   2/11
OREGON INLET NC  1400   81 81  160/  4/  5 1017.4R
HATTERAS NC      1400   82 81  110/  5/  6 1016.6R
CAPE LOOKOUT NC  1500   81     100/  8/  8 1016.9R
$$


USA.gov is the U.S. government's official web portal to all federal, state and local government web resources and services.